Tracking 19709 objects as of 20-Jun-2019
HD Live streaming from Space Station
objects crossing your sky now

FLOCK 4A 14

Track FLOCK 4A 14 now!
10-day predictions
FLOCK 4A 14 is classified as:


NORAD ID: 44101
Int'l Code: 2019-018Z
Perigee: 497.2 km
Apogee: 515.0 km
Inclination: 97.5 °
Period: 94.6 minutes
Semi major axis: 6877 km
RCS: Unknown
Launch date: April 1, 2019
Source: United States (US)
Launch site: SRIHARIKOTA (SRI)
aabbcc
Your satellite tracking list
Your tracking list is empty




NASA's NSSDC Master Catalog

Two Line Element Set (TLE):
1 44101U 19018Z   19171.14124041  .00000247  00000-0  13782-4 0  9993
2 44101  97.4563 231.0762 0012945  26.0379 334.1506 15.22287307 12142
Source of the keplerian elements: AFSPC